Location: Aldenham
(51.6667°N, 0.3500°W)
Time: 20:26:17
(UTC+00:00)

Vanguard 2 Rocket - Pass Details

Date: 19 February 2026
Orbit: 553 x 3287 km, 32.9° (Epoch: 6 March)

Event Time Altitude Azimuth Distance (km) Brightness Sun altitude
Rises 10:13:55 0° 200° (SSW) 7,190 12.0 21.9°
Reaches altitude 10° 10:20:45 10° 187° (S) 6,225 12.1 22.4°
Maximum altitude 10:32:58 21° 148° (SSE) 5,086 13.9 23.4°
Drops below altitude 10° 10:43:29 10° 109° (ESE) 5,328 11.6 24.1°
Sets 10:48:33 0° 94° (E) 5,919 11.4 24.4°
